Content
SEND FEEDBACK

Daily
Averages
Monthly
Summary
United States of America

ST. LOUIS, MISSOURI


Home > North America > United States > Missouri
Elevation: 163 meters     Latitude: 38 45N     Longitude: 090 22W

WEATHER
 
SELECT A DAY
Number of Records: 196,477;   Date Range: 1/1/95 - 8/28/14
 
SHARE

PRINT THIS DATA

[ ← Previous Day ]
WEATHER ALMANAC - 2 APRIL, 2013
[ Next Day → ]
[ °F ]   °C
Weather ElementAverageHighLow
Temperature2.6 °C9.4 °C (5:54 pm)-3.9 °C (5:54 am)
Dewpoint-7.1 °C-2.8 °C (10:54 pm)-11.7 °C (2:54 pm)
Humidity54.3 %85 % (6:54 am)24 % (2:54 pm)
Barometer1027.1 hPa1028.8 hPa (7:54 am)1025.7 hPa (1:54 am)
Wind Speed2.3 km/h9.3 km/h (8:54 am)
Weather ElementAverage
Visibility16.1 km
Wind DirectionNNE (20 °)

Weather ElementTotal
Precipitation---
Heating Degree Days15.6 (Base 18.3)
Averaged from 23 records on 2 April, 2013
WEATHER CONDITIONS BREAKOUT
WIND DIRECTION BREAKOUT
WEATHER BY HOUR - 2 APRIL, 2013
[ °F ]   °C
Local TimeTemperatureDewpointHumidityBarometerVisibilityWind DirectionWind SpeedGust SpeedPrecipitationEventsConditions
1:54 AM-1.7 °C-5.6 °C75 %1025.7 hPa16.1 kmCalmClear
2:54 AM-2.2 °C-6.1 °C75 %1026.1 hPa16.1 kmCalmClear
3:54 AM-2.2 °C-6.1 °C75 %1026.1 hPa16.1 kmCalmClear
4:54 AM-2.8 °C-6.7 °C75 %1026.4 hPa16.1 kmCalmClear
5:54 AM-3.9 °C-6.7 °C81 %1027.1 hPa16.1 kmCalmClear
6:54 AM-3.9 °C-6.1 °C85 %1027.8 hPa16.1 kmCalmClear
7:54 AM-1.1 °C-4.4 °C79 %1028.8 hPa16.1 kmCalmPartly Cloudy
8:54 AM1.7 °C-6.1 °C57 %1028.4 hPa16.1 kmENE (60°)9.3 km/hScattered Clouds
9:54 AM2.8 °C-7.8 °C46 %1028.8 hPa16.1 kmCalmClear
10:54 AM3.3 °C-8.3 °C43 %1028.8 hPa16.1 kmVariable5.6 km/hScattered Clouds
11:54 AM5 °C-10 °C33 %1028.1 hPa16.1 kmVariable5.6 km/hScattered Clouds
12:54 PM6.1 °C-10.6 °C30 %1027.8 hPa16.1 kmCalmScattered Clouds
1:54 PM6.7 °C-11.1 °C27 %1027.1 hPa16.1 kmCalmScattered Clouds
2:54 PM7.8 °C-11.7 °C24 %1026.8 hPa16.1 kmNNE (30°)9.3 km/hClear
3:54 PM8.3 °C-10.6 °C25 %1026.1 hPa16.1 kmVariable5.6 km/hScattered Clouds
4:54 PM8.9 °C-10 °C26 %1025.7 hPa16.1 kmNorth (350°)7.4 km/hClear
5:54 PM9.4 °C-9.4 °C26 %1025.7 hPa16.1 kmCalmScattered Clouds
6:54 PM7.8 °C-8.3 °C31 %1026.1 hPa16.1 kmNNE (20°)7.4 km/hScattered Clouds
7:54 PM3.9 °C-4.4 °C55 %1026.1 hPa16.1 kmCalmScattered Clouds
8:54 PM2.8 °C-3.3 °C65 %1026.4 hPa16.1 kmCalmClear
9:54 PM1.7 °C-3.9 °C67 %1026.8 hPa16.1 kmCalmClear
10:54 PM0.6 °C-2.8 °C78 %1026.8 hPa16.1 kmCalmClear
11:54 PM0.6 °C-3.9 °C72 %1027.1 hPa16.1 kmCalmClear
Hourly data recorded from KSUS, located 0 kilometers away from St. Louis, Missouri







STORIES FROM OUR PARTNERS